Weather History for Mosby, MO

Change the Weather History Date:

Sunday, April 7, 2013

  Actual Average (KMKC) Record (KMKC)
Temperature  
Mean Temperature 55 °F -  
Max Temperature 73 °F 61 °F 82 °F (1999)
Min Temperature 37 °F 42 °F 19 °F (2007)
Degree Days  
Heating Degree Days 10    
Growing Degree Days 5 (Base 50)    
Moisture  
Dew Point 44 °F    
Average Humidity 66    
Maximum Humidity 100    
Minimum Humidity 33    
Precipitation  
Precipitation 0.00 in - - ()
Sea Level Pressure  
Sea Level Pressure 29.80 in    
Wind  
Wind Speed 3 mph (SE)    
Max Wind Speed 12 mph    
Max Gust Speed 21 mph    
Visibility 10 miles    
Events Rain , Thunderstorm    
Averages and records for this station are not official NWS values.
T = Trace of Precipitation, MM = Missing Value Source: NWS Daily Summary

Daily Weather History Graph

Daily Weather History Graph

Search for Another Location

Airport:

Trip Planner

Search our weather history database for the weather conditions in past years. The results will help you decide how hot, cold, wet, or windy it might be!

Date:

Astronomy

Apr. 07, 2013 Rise Set
Actual Time 6:51 AM CDT 7:47 PM CDT
Civil Twilight 6:24 AM CDT 8:14 PM CDT
Nautical Twilight 5:52 AM CDT 8:47 PM CDT
Astronomical Twilight 5:18 AM CDT 9:20 PM CDT
Moon 5:08 AM CDT (4/7) 5:20 PM CDT (4/7)
Length of Visible Light 13h 50m
Length of Day
12h 55m
Waning Crescent, 8% of the Moon is Illuminated
Apr 7
Waning Crescent
Apr 10
New
Apr 18
First Quarter
Apr 25
Full
May 2
Last Quarter

Hourly Weather History & Observations

Time (CDT) Temp. Dew Point Humidity Pressure Visibility Wind Dir Wind Speed Gust Speed Precip Events Conditions
12:15 AM 50.0 °F 42.8 °F 76% 29.82 in 10.0 mi Calm Calm - N/A   Clear
12:35 AM 50.0 °F 42.8 °F 76% 29.82 in 10.0 mi Calm Calm - N/A   Clear
12:55 AM 48.2 °F 42.8 °F 82% 29.82 in 10.0 mi Calm Calm - N/A   Clear
1:15 AM 46.4 °F 41.0 °F 81% 29.82 in 10.0 mi Calm Calm - N/A   Clear
1:35 AM 46.4 °F 41.0 °F 81% 29.82 in 10.0 mi Calm Calm - N/A   Clear
1:55 AM 44.6 °F 41.0 °F 87% 29.83 in 10.0 mi Calm Calm - N/A   Clear
2:15 AM 44.6 °F 41.0 °F 87% 29.83 in 10.0 mi Calm Calm - N/A   Clear
2:35 AM 44.6 °F 41.0 °F 87% 29.82 in 10.0 mi Calm Calm - N/A   Clear
2:55 AM 42.8 °F 39.2 °F 87% 29.82 in 10.0 mi Calm Calm - N/A   Clear
3:15 AM 41.0 °F 39.2 °F 93% 29.83 in 10.0 mi Calm Calm - N/A   Clear
3:35 AM 41.0 °F 37.4 °F 87% 29.83 in 10.0 mi Calm Calm - N/A   Clear
3:55 AM 41.0 °F 37.4 °F 87% 29.83 in 10.0 mi Calm Calm - N/A   Clear
4:15 AM 41.0 °F 37.4 °F 87% 29.83 in 10.0 mi Calm Calm - N/A   Clear
4:35 AM 41.0 °F 37.4 °F 87% 29.83 in 10.0 mi Calm Calm - N/A   Clear
4:55 AM 39.2 °F 37.4 °F 93% 29.84 in 10.0 mi Calm Calm - N/A   Clear
5:15 AM 39.2 °F 37.4 °F 93% 29.84 in 10.0 mi Calm Calm - N/A   Clear
5:35 AM 39.2 °F 37.4 °F 93% 29.84 in 10.0 mi Calm Calm - N/A   Clear
5:55 AM 37.4 °F 35.6 °F 93% 29.84 in 10.0 mi Calm Calm - N/A   Clear
6:15 AM 37.4 °F 35.6 °F 93% 29.85 in 10.0 mi Calm Calm - N/A   Clear
6:35 AM 37.4 °F 37.4 °F 100% 29.85 in 10.0 mi Calm Calm - N/A   Clear
6:55 AM 37.4 °F 35.6 °F 93% 29.86 in 10.0 mi Calm Calm - N/A   Clear
7:15 AM 37.4 °F 37.4 °F 100% 29.86 in 10.0 mi Calm Calm - N/A   Clear
7:35 AM 41.0 °F 37.4 °F 87% 29.87 in 10.0 mi Calm Calm - N/A   Clear
7:55 AM 41.0 °F 37.4 °F 87% 29.87 in 10.0 mi Calm Calm - N/A   Clear
8:15 AM 42.8 °F 39.2 °F 87% 29.88 in 10.0 mi Calm Calm - N/A   Clear
8:35 AM 44.6 °F 42.8 °F 93% 29.88 in 10.0 mi Calm Calm - N/A   Clear
8:55 AM 50.0 °F 42.8 °F 76% 29.88 in 10.0 mi Calm Calm - N/A   Clear
9:15 AM 55.4 °F 44.6 °F 67% 29.88 in 10.0 mi Calm Calm - N/A   Unknown
9:35 AM 59.0 °F 44.6 °F 59% 29.87 in 10.0 mi ESE 3.5 mph - N/A   Unknown
9:55 AM 60.8 °F 44.6 °F 55% 29.87 in 10.0 mi ESE 3.5 mph - N/A   Clear
10:15 AM 62.6 °F 44.6 °F 52% 29.87 in 10.0 mi SE 3.5 mph - N/A   Clear
10:35 AM 62.6 °F 44.6 °F 52% 29.87 in 10.0 mi SSE 3.5 mph - N/A   Clear
10:55 AM 64.4 °F 44.6 °F 49% 29.88 in 10.0 mi SE 3.5 mph - N/A   Clear
11:15 AM 66.2 °F 42.8 °F 43% 29.88 in 10.0 mi ESE 6.9 mph - N/A   Clear
11:35 AM 68.0 °F 42.8 °F 40% 29.87 in 10.0 mi SE 5.8 mph - N/A   Clear
11:55 AM 69.8 °F 44.6 °F 40% 29.87 in 10.0 mi East 6.9 mph - N/A   Clear
12:15 PM 69.8 °F 44.6 °F 40% 29.86 in 10.0 mi SSE 10.4 mph - N/A   Clear
12:35 PM 69.8 °F 42.8 °F 38% 29.85 in 10.0 mi SE 9.2 mph - N/A   Clear
12:55 PM 71.6 °F 42.8 °F 35% 29.85 in 10.0 mi SSE 9.2 mph - N/A   Clear
1:15 PM 71.6 °F 41.0 °F 33% 29.84 in 10.0 mi SE 9.2 mph - N/A   Clear
1:35 PM 71.6 °F 41.0 °F 33% 29.84 in 10.0 mi SSE 10.4 mph - N/A   Clear
1:55 PM 71.6 °F 41.0 °F 33% 29.83 in 10.0 mi SSE 10.4 mph - N/A   Clear
2:15 PM 71.6 °F 41.0 °F 33% 29.82 in 10.0 mi South 10.4 mph - N/A   Clear
2:35 PM 71.6 °F 41.0 °F 33% 29.81 in 10.0 mi South 8.1 mph - N/A   Mostly Cloudy
2:55 PM 71.6 °F 42.8 °F 35% 29.80 in 10.0 mi SSE 11.5 mph - N/A   Overcast
3:15 PM 71.6 °F 44.6 °F 38% 29.79 in 10.0 mi SSE 8.1 mph - N/A   Overcast
3:35 PM 71.6 °F 44.6 °F 38% 29.79 in 10.0 mi SSE 5.8 mph - N/A   Overcast
3:55 PM 71.6 °F 44.6 °F 38% 29.77 in 10.0 mi SE 6.9 mph - N/A   Mostly Cloudy
4:15 PM 73.4 °F 44.6 °F 36% 29.77 in 10.0 mi SSE 10.4 mph - N/A   Mostly Cloudy
4:35 PM 73.4 °F 42.8 °F 33% 29.76 in 10.0 mi South 9.2 mph - N/A   Mostly Cloudy
4:55 PM 71.6 °F 42.8 °F 35% 29.75 in 10.0 mi South 10.4 mph - N/A   Mostly Cloudy
5:15 PM 71.6 °F 44.6 °F 38% 29.75 in 10.0 mi SSE 9.2 mph - N/A   Mostly Cloudy
5:35 PM 71.6 °F 46.4 °F 41% 29.74 in 10.0 mi SSE 10.4 mph - N/A   Mostly Cloudy
5:55 PM 71.6 °F 46.4 °F 41% 29.74 in 10.0 mi SSE 8.1 mph - N/A   Scattered Clouds
6:15 PM 71.6 °F 46.4 °F 41% 29.72 in 10.0 mi SE 9.2 mph 18.4 mph N/A   Clear
6:35 PM 71.6 °F 46.4 °F 41% 29.70 in 10.0 mi SE 8.1 mph - N/A   Clear
6:55 PM 69.8 °F 48.2 °F 46% 29.70 in 10.0 mi ESE 8.1 mph - N/A Rain Light Rain
7:15 PM 69.8 °F 50.0 °F 49% 29.69 in 10.0 mi SE 6.9 mph - N/A   Mostly Cloudy
7:35 PM 68.0 °F 50.0 °F 52% 29.68 in 10.0 mi ESE 8.1 mph - N/A Thunderstorm Mostly Cloudy
7:55 PM 68.0 °F 46.4 °F 46% 29.69 in 10.0 mi SSE 11.5 mph 20.7 mph N/A Thunderstorm Thunderstorm
8:15 PM 64.4 °F 50.0 °F 59% 29.69 in 10.0 mi SE 8.1 mph - N/A Rain Rain
8:35 PM 62.6 °F 50.0 °F 63% 29.68 in 10.0 mi SE 6.9 mph - N/A Rain , Thunderstorm Light Thunderstorms and Rain
8:55 PM 60.8 °F 51.8 °F 72% 29.70 in 7.0 mi SE 8.1 mph - N/A Rain , Thunderstorm Rain
9:15 PM 59.0 °F 53.6 °F 82% 29.72 in 5.0 mi SE 11.5 mph 16.1 mph N/A Rain , Thunderstorm Thunderstorms and Rain
9:35 PM 59.0 °F 55.4 °F 88% 29.71 in 10.0 mi SE 11.5 mph 20.7 mph N/A Rain , Thunderstorm Light Thunderstorms and Rain
9:55 PM 59.0 °F 53.6 °F 82% 29.72 in 10.0 mi SE 8.1 mph 16.1 mph N/A Rain , Thunderstorm Light Thunderstorms and Rain
10:15 PM 59.0 °F 53.6 °F 82% 29.76 in 4.0 mi Calm Calm - N/A Rain , Thunderstorm Thunderstorms and Rain
10:35 PM 55.4 °F 53.6 °F 94% 29.76 in 0.8 mi East 6.9 mph - N/A Rain , Thunderstorm Thunderstorms and Rain
10:55 PM 55.4 °F 51.8 °F 88% 29.74 in 7.0 mi East 3.5 mph - N/A Rain , Thunderstorm Light Thunderstorms and Rain
11:15 PM 55.4 °F 53.6 °F 94% 29.71 in 10.0 mi East 6.9 mph - N/A Rain , Thunderstorm Light Thunderstorms and Rain
11:35 PM 55.4 °F 53.6 °F 94% 29.69 in 10.0 mi ESE 8.1 mph - N/A Thunderstorm Overcast
11:55 PM 55.4 °F 53.6 °F 94% 29.68 in 10.0 mi ESE 6.9 mph - N/A Rain , Thunderstorm Light Thunderstorms and Rain